| time (UTC) | temp F | wind direction | speed MPH | gust MPH | rain 1hr in | rain 24hr in | rain mn in | humidity % | barometer mb |
| 20260902091107 | 60 | 197 | 2.0 | 6.0 | 0.00 | 0.03 | 0.00 | 87 | 1006.8 |
| 20260902090609 | 60 | 208 | 1.0 | 8.0 | 0.00 | 0.03 | 0.00 | 87 | 1006.9 |
| 20260902090107 | 60 | 195 | 2.0 | 8.0 | 0.00 | 0.03 | 0.00 | 87 | 1006.9 |
| 20260902085606 | 60 | 195 | 2.0 | 8.0 | 0.00 | 0.03 | 0.00 | 87 | 1006.9 |
| 20260902085107 | 60 | 195 | 2.0 | 8.0 | 0.00 | 0.03 | 0.00 | 87 | 1006.9 |
| 20260902084606 | 60 | 195 | 2.0 | 8.0 | 0.00 | 0.03 | 0.00 | 87 | 1007.0 |
| 20260902084107 | 60 | 195 | 1.0 | 3.0 | 0.00 | 0.03 | 0.00 | 87 | 1007.2 |
| 20260902083608 | 60 | 195 | 2.0 | 5.0 | 0.00 | 0.03 | 0.00 | 87 | 1007.2 |
| 20260902082607 | 60 | 195 | 2.0 | 6.0 | 0.00 | 0.03 | 0.00 | 87 | 1007.1 |
| 20260902081607 | 60 | 195 | 1.0 | 3.0 | 0.00 | 0.03 | 0.00 | 87 | 1007.2 |
| 20260902081108 | 60 | 195 | 2.0 | 5.0 | 0.00 | 0.03 | 0.00 | 87 | 1007.2 |
| 20260902080107 | 60 | 195 | 2.0 | 9.0 | 0.00 | 0.03 | 0.00 | 87 | 1007.3 |
| 20260902075607 | 60 | 195 | 2.0 | 9.0 | 0.00 | 0.03 | 0.00 | 87 | 1007.4 |
| 20260902075106 | 60 | 195 | 2.0 | 9.0 | 0.00 | 0.03 | 0.00 | 87 | 1007.4 |
| 20260902074606 | 60 | 195 | 2.0 | 3.0 | 0.00 | 0.03 | 0.00 | 87 | 1007.5 |
| 20260902074108 | 60 | 195 | 1.0 | 5.0 | 0.00 | 0.03 | 0.00 | 87 | 1007.5 |
| 20260902073606 | 60 | 195 | 1.0 | 5.0 | 0.00 | 0.03 | 0.00 | 87 | 1007.6 |
| 20260902073112 | 60 | 195 | 1.0 | 6.0 | 0.00 | 0.03 | 0.00 | 86 | 1007.6 |
| 20260902072109 | 60 | 195 | 1.0 | 5.0 | 0.00 | 0.03 | 0.00 | 86 | 1007.7 |
| 20260902071607 | 60 | 195 | 1.0 | 3.0 | 0.00 | 0.03 | 0.00 | 86 | 1007.8 |
| 20260902065607 | 60 | 210 | 1.0 | 5.0 | 0.00 | 0.03 | 0.03 | 86 | 1008.0 |
| 20260902065106 | 60 | 195 | 2.0 | 3.0 | 0.00 | 0.03 | 0.03 | 86 | 1008.0 |
| 20260902064107 | 60 | 195 | 1.0 | 3.0 | 0.00 | 0.03 | 0.03 | 86 | 1007.9 |
| 20260902063606 | 60 | 195 | 0.0 | 5.0 | 0.00 | 0.03 | 0.03 | 86 | 1007.9 |
| 20260902063106 | 60 | 199 | 1.0 | 5.0 | 0.00 | 0.03 | 0.03 | 86 | 1008.0 |
| 20260902062608 | 60 | 195 | 1.0 | 3.0 | 0.00 | 0.03 | 0.03 | 86 | 1008.0 |
| 20260902062106 | 60 | 195 | 2.0 | 3.0 | 0.00 | 0.03 | 0.03 | 86 | 1008.1 |
| 20260902061606 | 60 | 195 | 1.0 | 3.0 | 0.00 | 0.03 | 0.03 | 86 | 1008.0 |
| 20260902061107 | 59 | 195 | 2.0 | 5.0 | 0.00 | 0.03 | 0.03 | 86 | 1008.0 |
| 20260902060607 | 59 | 195 | 1.0 | 5.0 | 0.00 | 0.03 | 0.03 | 86 | 1008.0 |
| 20260902060107 | 59 | 224 | 1.0 | 3.0 | 0.00 | 0.03 | 0.03 | 86 | 1008.1 |
| 20260902055608 | 59 | 195 | 2.0 | 3.0 | 0.00 | 0.03 | 0.03 | 86 | 1008.2 |
| 20260902055107 | 59 | 195 | 0.0 | 3.0 | 0.00 | 0.03 | 0.03 | 86 | 1008.2 |
| 20260902054606 | 59 | 195 | 1.0 | 3.0 | 0.00 | 0.03 | 0.03 | 86 | 1008.2 |
| 20260902054108 | 59 | 195 | 1.0 | 3.0 | 0.00 | 0.03 | 0.03 | 86 | 1008.2 |
| 20260902053607 | 59 | 195 | 0.0 | 2.0 | 0.00 | 0.03 | 0.03 | 86 | 1008.3 |
| 20260902053108 | 59 | 195 | 0.0 | 3.0 | 0.00 | 0.03 | 0.03 | 86 | 1008.4 |
| 20260902052607 | 59 | 195 | 1.0 | 3.0 | 0.00 | 0.03 | 0.03 | 86 | 1008.4 |
| 20260902052106 | 59 | 221 | 0.0 | 3.0 | 0.00 | 0.03 | 0.03 | 86 | 1008.3 |
| 20260902051608 | 59 | 221 | 0.0 | 3.0 | 0.00 | 0.03 | 0.03 | 86 | 1008.4 |
| 20260902051106 | 59 | 222 | 1.0 | 5.0 | 0.00 | 0.03 | 0.03 | 86 | 1008.5 |
| 20260902050608 | 59 | 195 | 1.0 | 5.0 | 0.00 | 0.03 | 0.03 | 86 | 1008.5 |
| 20260902050107 | 59 | 195 | 0.0 | 5.0 | 0.00 | 0.03 | 0.03 | 86 | 1008.5 |
| 20260902045606 | 59 | 229 | 1.0 | 3.0 | 0.00 | 0.03 | 0.03 | 86 | 1008.6 |
| 20260902045107 | 59 | 225 | 1.0 | 6.0 | 0.00 | 0.03 | 0.03 | 86 | 1008.4 |
| 20260902044607 | 59 | 227 | 1.0 | 6.0 | 0.00 | 0.03 | 0.03 | 86 | 1008.5 |
| 20260902044106 | 59 | 195 | 1.0 | 3.0 | 0.00 | 0.03 | 0.03 | 86 | 1008.5 |
| 20260902043606 | 59 | 195 | 1.0 | 3.0 | 0.00 | 0.03 | 0.03 | 86 | 1008.5 |
| 20260902042107 | 60 | 195 | 1.0 | 5.0 | 0.00 | 0.03 | 0.03 | 86 | 1008.7 |
| 20260902041607 | 60 | 195 | 1.0 | 5.0 | 0.00 | 0.03 | 0.03 | 86 | 1008.7 |
| 20260902041107 | 60 | 195 | 1.0 | 5.0 | 0.00 | 0.03 | 0.03 | 86 | 1008.7 |
| 20260902040607 | 60 | 195 | 2.0 | 5.0 | 0.00 | 0.03 | 0.03 | 86 | 1008.8 |
| 20260902040107 | 60 | 195 | 1.0 | 3.0 | 0.00 | 0.03 | 0.03 | 86 | 1008.7 |
| 20260902035607 | 60 | 195 | 1.0 | 3.0 | 0.00 | 0.03 | 0.03 | 86 | 1008.7 |
| 20260902034607 | 60 | 195 | 0.0 | 3.0 | 0.00 | 0.03 | 0.03 | 85 | 1008.6 |
| 20260902034107 | 61 | 195 | 1.0 | 3.0 | 0.00 | 0.03 | 0.03 | 85 | 1008.6 |
| 20260902033608 | 61 | 195 | 1.0 | 3.0 | 0.00 | 0.03 | 0.03 | 85 | 1008.6 |
| 20260902032606 | 61 | 195 | 1.0 | 3.0 | 0.00 | 0.03 | 0.03 | 85 | 1008.6 |
| 20260902032108 | 61 | 195 | 1.0 | 3.0 | 0.00 | 0.03 | 0.03 | 84 | 1008.6 |
| 20260902031608 | 61 | 195 | 0.0 | 3.0 | 0.00 | 0.03 | 0.03 | 84 | 1008.6 |
| 20260902031106 | 61 | 195 | 1.0 | 3.0 | 0.00 | 0.03 | 0.03 | 84 | 1008.6 |
| 20260902030606 | 61 | 195 | 1.0 | 3.0 | 0.00 | 0.03 | 0.03 | 84 | 1008.6 |
| 20260902030106 | 61 | 195 | 0.0 | 3.0 | 0.00 | 0.03 | 0.03 | 84 | 1008.7 |
| 20260902025106 | 62 | 195 | 0.0 | 3.0 | 0.00 | 0.03 | 0.03 | 83 | 1008.8 |
| 20260902024114 | 62 | 195 | 1.0 | 3.0 | 0.00 | 0.03 | 0.03 | 83 | 1008.8 |
| 20260902023606 | 62 | 195 | 1.0 | 3.0 | 0.00 | 0.03 | 0.03 | 83 | 1008.8 |
| 20260902023108 | 62 | 195 | 1.0 | 3.0 | 0.00 | 0.03 | 0.03 | 83 | 1008.7 |
| 20260902022611 | 62 | 195 | 1.0 | 3.0 | 0.00 | 0.03 | 0.03 | 83 | 1008.9 |
| 20260902022106 | 62 | 195 | 1.0 | 3.0 | 0.00 | 0.03 | 0.03 | 82 | 1008.9 |
| 20260902021607 | 63 | 218 | 1.0 | 3.0 | 0.00 | 0.03 | 0.03 | 82 | 1008.9 |
| 20260902021106 | 63 | 224 | 1.0 | 3.0 | 0.00 | 0.03 | 0.03 | 82 | 1009.0 |
| 20260902020610 | 63 | 195 | 2.0 | 3.0 | 0.00 | 0.03 | 0.03 | 82 | 1009.0 |
| 20260902015608 | 63 | 195 | 1.0 | 3.0 | 0.00 | 0.03 | 0.03 | 82 | 1009.1 |
| 20260902015108 | 63 | 195 | 1.0 | 3.0 | 0.00 | 0.03 | 0.03 | 82 | 1009.1 |
| 20260902013608 | 64 | 209 | 1.0 | 3.0 | 0.00 | 0.03 | 0.03 | 82 | 1009.2 |
| 20260902013107 | 64 | 209 | 1.0 | 3.0 | 0.03 | 0.03 | 0.03 | 82 | 1009.2 |
| 20260902012614 | 64 | 195 | 1.0 | 5.0 | 0.03 | 0.03 | 0.03 | 82 | 1009.2 |
| 20260902011622 | 64 | 199 | 1.0 | 5.0 | 0.03 | 0.03 | 0.03 | 82 | 1009.2 |
| 20260902011107 | 64 | 195 | 3.0 | 5.0 | 0.03 | 0.03 | 0.03 | 82 | 1009.2 |
| 20260902010608 | 64 | 199 | 2.0 | 3.0 | 0.03 | 0.03 | 0.03 | 82 | 1009.1 |
| 20260902010106 | 64 | 195 | 2.0 | 3.0 | 0.03 | 0.03 | 0.03 | 82 | 1009.1 |
| 20260902005607 | 64 | 197 | 2.0 | 3.0 | 0.03 | 0.03 | 0.03 | 82 | 1009.1 |
| 20260902005105 | 64 | 209 | 1.0 | 3.0 | 0.03 | 0.03 | 0.03 | 81 | 1009.1 |
| 20260902004605 | 65 | 209 | 1.0 | 3.0 | 0.03 | 0.03 | 0.03 | 81 | 1009.0 |
| 20260902003606 | 65 | 214 | 1.0 | 3.0 | 0.03 | 0.03 | 0.03 | 81 | 1009.0 |
| 20260902003105 | 65 | 213 | 1.0 | 3.0 | 0.00 | 0.00 | 0.00 | 80 | 1009.1 |
| 20260902002106 | 65 | 212 | 1.0 | 3.0 | 0.00 | 0.00 | 0.00 | 80 | 1009.0 |
| 20260902001605 | 65 | 213 | 0.0 | 3.0 | 0.00 | 0.00 | 0.00 | 80 | 1009.0 |
| 20260902001105 | 65 | 212 | 1.0 | 3.0 | 0.00 | 0.00 | 0.00 | 80 | 1009.0 |
| 20260902000105 | 65 | 212 | 1.0 | 3.0 | 0.00 | 0.00 | 0.00 | 80 | 1009.0 |
| 20260901235605 | 65 | 195 | 1.0 | 3.0 | 0.00 | 0.00 | 0.00 | 81 | 1009.1 |
| 20260901235105 | 65 | 197 | 2.0 | 3.0 | 0.00 | 0.00 | 0.00 | 81 | 1009.0 |
| 20260901234605 | 65 | 195 | 0.0 | 3.0 | 0.00 | 0.00 | 0.00 | 80 | 1009.1 |
| 20260901234105 | 65 | 207 | 1.0 | 3.0 | 0.00 | 0.00 | 0.00 | 80 | 1009.1 |
| 20260901233607 | 65 | 195 | 1.0 | 3.0 | 0.00 | 0.00 | 0.00 | 81 | 1009.1 |
| 20260901233105 | 65 | 208 | 1.0 | 3.0 | 0.00 | 0.00 | 0.00 | 81 | 1009.2 |
| 20260901232606 | 65 | 195 | 1.0 | 3.0 | 0.00 | 0.00 | 0.00 | 81 | 1009.2 |
| 20260901232106 | 65 | 215 | 1.0 | 3.0 | 0.00 | 0.00 | 0.00 | 81 | 1009.3 |
| 20260901231605 | 65 | 198 | 1.0 | 3.0 | 0.00 | 0.00 | 0.00 | 82 | 1009.4 |
| 20260901231106 | 65 | 195 | 1.0 | 3.0 | 0.00 | 0.00 | 0.00 | 83 | 1009.3 |
| 20260901230605 | 65 | 195 | 1.0 | 3.0 | 0.00 | 0.00 | 0.00 | 83 | 1009.4 |
| 20260901225605 | 65 | 210 | 1.0 | 3.0 | 0.00 | 0.00 | 0.00 | 83 | 1009.5 |
| 20260901225106 | 65 | 214 | 0.0 | 3.0 | 0.00 | 0.00 | 0.00 | 82 | 1009.4 |
| 20260901224605 | 65 | 214 | 1.0 | 3.0 | 0.00 | 0.00 | 0.00 | 81 | 1009.5 |
| 20260901224105 | 65 | 212 | 1.0 | 3.0 | 0.00 | 0.00 | 0.00 | 80 | 1009.5 |
| 20260901223606 | 65 | 220 | 1.0 | 3.0 | 0.00 | 0.00 | 0.00 | 79 | 1009.5 |
| 20260901223105 | 66 | 214 | 1.0 | 5.0 | 0.00 | 0.00 | 0.00 | 77 | 1009.4 |
| 20260901222606 | 67 | 215 | 1.0 | 5.0 | 0.00 | 0.00 | 0.00 | 77 | 1009.5 |
| 20260901222106 | 68 | 210 | 1.0 | 6.0 | 0.00 | 0.00 | 0.00 | 76 | 1009.4 |
| 20260901221605 | 68 | 195 | 2.0 | 6.0 | 0.00 | 0.00 | 0.00 | 76 | 1009.4 |
| 20260901221106 | 68 | 213 | 1.0 | 6.0 | 0.00 | 0.00 | 0.00 | 77 | 1009.3 |
| 20260901220605 | 68 | 211 | 1.0 | 6.0 | 0.00 | 0.00 | 0.00 | 75 | 1009.4 |
| 20260901220107 | 68 | 212 | 2.0 | 6.0 | 0.00 | 0.00 | 0.00 | 75 | 1009.3 |
| 20260901215606 | 68 | 213 | 2.0 | 5.0 | 0.00 | 0.00 | 0.00 | 76 | 1009.2 |
| 20260901215106 | 68 | 195 | 2.0 | 3.0 | 0.00 | 0.00 | 0.00 | 78 | 1009.3 |
| 20260901214605 | 67 | 208 | 2.0 | 8.0 | 0.00 | 0.00 | 0.00 | 78 | 1009.2 |
| 20260901214106 | 67 | 211 | 1.0 | 8.0 | 0.00 | 0.00 | 0.00 | 78 | 1009.3 |
| 20260901213606 | 67 | 200 | 2.0 | 9.0 | 0.00 | 0.00 | 0.00 | 78 | 1009.4 |
| 20260901213105 | 67 | 195 | 2.0 | 9.0 | 0.00 | 0.00 | 0.00 | 77 | 1009.3 |
| 20260901212104 | 68 | 195 | 1.0 | 5.0 | 0.00 | 0.00 | 0.00 | 77 | 1009.4 |
| 20260901211605 | 68 | 195 | 2.0 | 3.0 | 0.00 | 0.00 | 0.00 | 76 | 1009.4 |
| 20260901211105 | 68 | 216 | 1.0 | 5.0 | 0.00 | 0.00 | 0.00 | 77 | 1009.4 |
| 20260901210105 | 68 | 195 | 2.0 | 5.0 | 0.00 | 0.00 | 0.00 | 76 | 1009.4 |
| 20260901205605 | 68 | 209 | 2.0 | 5.0 | 0.00 | 0.00 | 0.00 | 76 | 1009.5 |
| 20260901202606 | 69 | 197 | 1.0 | 5.0 | 0.00 | 0.00 | 0.00 | 74 | 1009.6 |
| 20260901202107 | 69 | 195 | 1.0 | 3.0 | 0.00 | 0.00 | 0.00 | 74 | 1009.6 |
| 20260901201605 | 69 | 225 | 2.0 | 3.0 | 0.00 | 0.00 | 0.00 | 75 | 1009.6 |
| 20260901201105 | 68 | 201 | 2.0 | 3.0 | 0.00 | 0.00 | 0.00 | 76 | 1009.6 |
| 20260901200605 | 68 | 201 | 2.0 | 5.0 | 0.00 | 0.00 | 0.00 | 76 | 1009.6 |
| 20260901200106 | 68 | 223 | 1.0 | 5.0 | 0.00 | 0.00 | 0.00 | 75 | 1009.6 |
| 20260901194605 | 68 | 209 | 2.0 | 3.0 | 0.00 | 0.00 | 0.00 | 75 | 1009.6 |
| 20260901194105 | 68 | 214 | 2.0 | 5.0 | 0.00 | 0.00 | 0.00 | 76 | 1009.6 |
| 20260901193606 | 68 | 195 | 2.0 | 5.0 | 0.00 | 0.00 | 0.00 | 77 | 1009.6 |
| 20260901192605 | 67 | 212 | 1.0 | 3.0 | 0.00 | 0.00 | 0.00 | 78 | 1009.6 |
| 20260901191105 | 67 | 210 | 1.0 | 6.0 | 0.00 | 0.00 | 0.00 | 79 | 1009.7 |
| 20260901190605 | 67 | 218 | 2.0 | 3.0 | 0.00 | 0.00 | 0.00 | 79 | 1009.7 |
| 20260901190105 | 66 | 212 | 1.0 | 3.0 | 0.00 | 0.00 | 0.00 | 79 | 1009.8 |
| 20260901185604 | 66 | 209 | 1.0 | 3.0 | 0.00 | 0.00 | 0.00 | 79 | 1009.8 |
| 20260901185105 | 66 | 213 | 1.0 | 6.0 | 0.00 | 0.00 | 0.00 | 79 | 1009.8 |
| 20260901184605 | 66 | 217 | 2.0 | 6.0 | 0.00 | 0.00 | 0.00 | 78 | 1009.8 |
| 20260901183605 | 67 | 198 | 2.0 | 5.0 | 0.00 | 0.00 | 0.00 | 80 | 1009.8 |
| 20260901182605 | 66 | 216 | 1.0 | 3.0 | 0.00 | 0.00 | 0.00 | 81 | 1009.7 |
| 20260901182105 | 66 | 222 | 1.0 | 5.0 | 0.00 | 0.00 | 0.00 | 81 | 1009.7 |
| 20260901181607 | 66 | 224 | 1.0 | 5.0 | 0.00 | 0.00 | 0.00 | 82 | 1009.7 |
| 20260901181107 | 66 | 210 | 1.0 | 5.0 | 0.00 | 0.00 | 0.00 | 82 | 1009.7 |
| 20260901180608 | 65 | 211 | 1.0 | 3.0 | 0.00 | 0.00 | 0.00 | 82 | 1009.7 |
| 20260901180111 | 65 | 203 | 1.0 | 5.0 | 0.00 | 0.00 | 0.00 | 83 | 1009.7 |
| 20260901175607 | 65 | 215 | 1.0 | 6.0 | 0.00 | 0.00 | 0.00 | 84 | 1009.7 |
| 20260901175106 | 65 | 221 | 1.0 | 6.0 | 0.00 | 0.00 | 0.00 | 86 | 1009.6 |
| 20260901174605 | 64 | 195 | 1.0 | 5.0 | 0.00 | 0.00 | 0.00 | 86 | 1009.5 |
| 20260901174106 | 64 | 195 | 0.0 | 3.0 | 0.00 | 0.00 | 0.00 | 86 | 1009.5 |
| 20260901173604 | 63 | 195 | 1.0 | 3.0 | 0.00 | 0.00 | 0.00 | 86 | 1009.5 |
| 20260901173105 | 63 | 199 | 1.0 | 3.0 | 0.00 | 0.00 | 0.00 | 86 | 1009.5 |
| 20260901172105 | 62 | 210 | 1.0 | 3.0 | 0.00 | 0.00 | 0.00 | 86 | 1009.5 |
| 20260901171605 | 62 | 208 | 0.0 | 3.0 | 0.00 | 0.00 | 0.00 | 86 | 1009.4 |
| 20260901171104 | 62 | 205 | 1.0 | 3.0 | 0.00 | 0.00 | 0.00 | 86 | 1009.5 |
| 20260901165605 | 62 | 201 | 0.0 | 5.0 | 0.00 | 0.00 | 0.00 | 87 | 1009.4 |
| 20260901165105 | 62 | 198 | 1.0 | 3.0 | 0.00 | 0.00 | 0.00 | 88 | 1009.3 |
| 20260901164605 | 62 | 195 | 0.0 | 3.0 | 0.00 | 0.00 | 0.00 | 87 | 1009.4 |
| 20260901164106 | 62 | 197 | 1.0 | 3.0 | 0.00 | 0.00 | 0.00 | 87 | 1009.4 |
| 20260901163604 | 62 | 210 | 0.0 | 3.0 | 0.00 | 0.00 | 0.00 | 88 | 1009.4 |
| 20260901163105 | 62 | 211 | 0.0 | 3.0 | 0.00 | 0.00 | 0.00 | 88 | 1009.4 |
| 20260901162605 | 61 | 210 | 1.0 | 3.0 | 0.00 | 0.00 | 0.00 | 88 | 1009.4 |
| 20260901161605 | 61 | 205 | 1.0 | 3.0 | 0.00 | 0.00 | 0.00 | 88 | 1009.4 |
| 20260901161104 | 61 | 196 | 1.0 | 3.0 | 0.00 | 0.00 | 0.00 | 89 | 1009.4 |
| 20260901160604 | 61 | 209 | 1.0 | 3.0 | 0.00 | 0.00 | 0.00 | 89 | 1009.4 |
| 20260901155605 | 61 | 212 | 0.0 | 3.0 | 0.00 | 0.00 | 0.00 | 89 | 1009.4 |
| 20260901155105 | 61 | 212 | 0.0 | 2.0 | 0.00 | 0.00 | 0.00 | 89 | 1009.4 |
| 20260901153606 | 60 | 212 | 0.0 | 1.0 | 0.00 | 0.00 | 0.00 | 90 | 1009.4 |
| 20260901152605 | 60 | 212 | 0.0 | 2.0 | 0.00 | 0.00 | 0.00 | 89 | 1009.4 |
| 20260901152105 | 60 | 212 | 0.0 | 2.0 | 0.00 | 0.00 | 0.00 | 89 | 1009.4 |
| 20260901151604 | 60 | 212 | 0.0 | 0.0 | 0.00 | 0.00 | 0.00 | 89 | 1009.3 |
| 20260901151104 | 60 | 212 | 0.0 | 0.0 | 0.00 | 0.00 | 0.00 | 89 | 1009.2 |
| 20260901150605 | 60 | 212 | 0.0 | 0.0 | 0.00 | 0.00 | 0.00 | 89 | 1009.2 |
| 20260901150106 | 60 | 212 | 0.0 | 0.0 | 0.00 | 0.00 | 0.00 | 89 | 1009.2 |
| 20260901145604 | 60 | 212 | 0.0 | 0.0 | 0.00 | 0.00 | 0.00 | 89 | 1009.1 |
| 20260901145105 | 59 | 212 | 0.0 | 0.0 | 0.00 | 0.00 | 0.00 | 89 | 1009.1 |
| 20260901144605 | 59 | 212 | 0.0 | 0.0 | 0.00 | 0.00 | 0.00 | 89 | 1009.1 |
| 20260901144104 | 59 | 212 | 0.0 | 0.0 | 0.00 | 0.00 | 0.00 | 89 | 1009.1 |
| 20260901143604 | 59 | 212 | 0.0 | 0.0 | 0.00 | 0.00 | 0.00 | 89 | 1009.1 |
| 20260901142604 | 59 | 212 | 0.0 | 0.0 | 0.00 | 0.00 | 0.00 | 89 | 1009.2 |
| 20260901142105 | 59 | 212 | 0.0 | 0.0 | 0.00 | 0.00 | 0.00 | 89 | 1009.2 |
| 20260901141606 | 59 | 212 | 0.0 | 0.0 | 0.00 | 0.00 | 0.00 | 89 | 1009.2 |
| 20260901141105 | 59 | 212 | 0.0 | 0.0 | 0.00 | 0.00 | 0.00 | 89 | 1009.1 |
| 20260901140605 | 59 | 212 | 0.0 | 0.0 | 0.00 | 0.00 | 0.00 | 89 | 1009.0 |
| 20260901140104 | 59 | 212 | 0.0 | 0.0 | 0.00 | 0.00 | 0.00 | 89 | 1009.0 |
| 20260901135604 | 59 | 212 | 0.0 | 0.0 | 0.00 | 0.00 | 0.00 | 89 | 1009.0 |
| 20260901135105 | 59 | 212 | 0.0 | 0.0 | 0.00 | 0.00 | 0.00 | 89 | 1009.0 |
| 20260901134605 | 59 | 212 | 0.0 | 0.0 | 0.00 | 0.00 | 0.00 | 89 | 1009.0 |
| 20260901133604 | 59 | 212 | 0.0 | 0.0 | 0.00 | 0.00 | 0.00 | 89 | 1009.0 |
| 20260901133105 | 59 | 212 | 0.0 | 0.0 | 0.00 | 0.00 | 0.00 | 89 | 1009.0 |
| 20260901132606 | 59 | 212 | 0.0 | 0.0 | 0.00 | 0.00 | 0.00 | 89 | 1008.9 |
| 20260901132104 | 59 | 212 | 0.0 | 0.0 | 0.00 | 0.00 | 0.00 | 89 | 1008.9 |
| 20260901131605 | 59 | 212 | 0.0 | 0.0 | 0.00 | 0.00 | 0.00 | 89 | 1008.8 |
| 20260901131104 | 59 | 212 | 0.0 | 0.0 | 0.00 | 0.00 | 0.00 | 89 | 1008.9 |
| 20260901130606 | 58 | 212 | 0.0 | 0.0 | 0.00 | 0.00 | 0.00 | 89 | 1008.9 |
| 20260901130105 | 58 | 212 | 0.0 | 0.0 | 0.00 | 0.00 | 0.00 | 89 | 1008.9 |
| 20260901125604 | 58 | 212 | 0.0 | 0.0 | 0.00 | 0.00 | 0.00 | 89 | 1008.9 |
| 20260901125104 | 58 | 212 | 0.0 | 0.0 | 0.00 | 0.00 | 0.00 | 89 | 1008.9 |
| 20260901124605 | 58 | 212 | 0.0 | 0.0 | 0.00 | 0.00 | 0.00 | 88 | 1008.9 |
| 20260901124105 | 58 | 212 | 0.0 | 0.0 | 0.00 | 0.00 | 0.00 | 88 | 1008.9 |
| 20260901123104 | 58 | 212 | 0.0 | 0.0 | 0.00 | 0.00 | 0.00 | 88 | 1009.0 |
| 20260901122605 | 58 | 212 | 0.0 | 0.0 | 0.00 | 0.00 | 0.00 | 88 | 1009.0 |
| 20260901122106 | 58 | 212 | 0.0 | 0.0 | 0.00 | 0.00 | 0.00 | 88 | 1009.0 |
| 20260901121605 | 58 | 212 | 0.0 | 0.0 | 0.00 | 0.00 | 0.00 | 88 | 1009.0 |
| 20260901121105 | 58 | 212 | 0.0 | 0.0 | 0.00 | 0.00 | 0.00 | 88 | 1009.0 |
| 20260901120605 | 58 | 212 | 0.0 | 0.0 | 0.00 | 0.00 | 0.00 | 89 | 1009.0 |
| 20260901120106 | 58 | 212 | 0.0 | 0.0 | 0.00 | 0.00 | 0.00 | 89 | 1009.0 |
| 20260901115605 | 58 | 212 | 0.0 | 0.0 | 0.00 | 0.00 | 0.00 | 89 | 1009.1 |
| 20260901115104 | 58 | 212 | 0.0 | 0.0 | 0.00 | 0.00 | 0.00 | 89 | 1009.1 |
| 20260901114604 | 58 | 212 | 0.0 | 0.0 | 0.00 | 0.00 | 0.00 | 89 | 1009.1 |
| 20260901114104 | 58 | 212 | 0.0 | 0.0 | 0.00 | 0.00 | 0.00 | 89 | 1009.2 |
| 20260901113604 | 58 | 212 | 0.0 | 0.0 | 0.00 | 0.00 | 0.00 | 89 | 1009.2 |
| 20260901113104 | 58 | 212 | 0.0 | 0.0 | 0.00 | 0.00 | 0.00 | 89 | 1009.2 |
| 20260901112604 | 58 | 212 | 0.0 | 0.0 | 0.00 | 0.00 | 0.00 | 88 | 1009.2 |
| 20260901112105 | 58 | 212 | 0.0 | 0.0 | 0.00 | 0.00 | 0.00 | 88 | 1009.2 |
| 20260901111605 | 58 | 212 | 0.0 | 0.0 | 0.00 | 0.00 | 0.00 | 88 | 1009.1 |
| 20260901110605 | 58 | 212 | 0.0 | 0.0 | 0.00 | 0.00 | 0.00 | 88 | 1009.1 |
| 20260901110104 | 58 | 212 | 0.0 | 0.0 | 0.00 | 0.00 | 0.00 | 88 | 1009.2 |
| 20260901105605 | 58 | 212 | 0.0 | 0.0 | 0.00 | 0.00 | 0.00 | 88 | 1009.2 |
| 20260901105106 | 58 | 212 | 0.0 | 0.0 | 0.00 | 0.00 | 0.00 | 88 | 1009.2 |
| 20260901104606 | 58 | 212 | 0.0 | 0.0 | 0.00 | 0.00 | 0.00 | 88 | 1009.1 |
| 20260901104106 | 58 | 212 | 0.0 | 0.0 | 0.00 | 0.00 | 0.00 | 88 | 1009.1 |
| 20260901102104 | 58 | 212 | 0.0 | 0.0 | 0.00 | 0.00 | 0.00 | 88 | 1009.0 |
| 20260901101604 | 58 | 212 | 0.0 | 0.0 | 0.00 | 0.00 | 0.00 | 88 | 1009.0 |
| 20260901101105 | 58 | 212 | 0.0 | 0.0 | 0.00 | 0.00 | 0.00 | 88 | 1009.0 |
| 20260901100604 | 58 | 212 | 0.0 | 0.0 | 0.00 | 0.00 | 0.00 | 88 | 1009.0 |
| 20260901100105 | 58 | 212 | 0.0 | 0.0 | 0.00 | 0.00 | 0.00 | 88 | 1009.0 |
| 20260901095604 | 59 | 212 | 0.0 | 0.0 | 0.00 | 0.00 | 0.00 | 88 | 1009.0 |
| 20260901095106 | 59 | 212 | 0.0 | 0.0 | 0.00 | 0.00 | 0.00 | 88 | 1009.0 |
| 20260901094605 | 59 | 212 | 0.0 | 0.0 | 0.00 | 0.00 | 0.00 | 88 | 1009.0 |
| 20260901094104 | 59 | 212 | 0.0 | 0.0 | 0.00 | 0.00 | 0.00 | 88 | 1008.9 |
| 20260901093606 | 59 | 212 | 0.0 | 0.0 | 0.00 | 0.00 | 0.00 | 88 | 1009.0 |
| 20260901092606 | 59 | 212 | 0.0 | 0.0 | 0.00 | 0.00 | 0.00 | 88 | 1009.0 |
| 20260901092105 | 59 | 212 | 0.0 | 0.0 | 0.00 | 0.00 | 0.00 | 88 | 1009.0 |
| 20260901091605 | 59 | 212 | 0.0 | 0.0 | 0.00 | 0.00 | 0.00 | 88 | 1009.0 |